ACA112 CYWG-CYYZ

Flight info

Callsign ACA112
Flight time N/A
Altitude 41000
Route RORMA DCT AXOMA DCT SIDPO DCT DEGVA DCT AGLIN DCT OTNIK BOXUM7
Aircraft A343/H-SDE2E3FGHIJ4J5M1RWXY/LB1D1

Departure

Time 2026-05-05 01:47
Airport Winnipeg / James Armstrong Richardson International Airport (CYWG)

Arrival

Time N/A
Airport Toronto Pearson International Airport (CYYZ)
Time Latitude Longitude Altitude Speed Heading
2026-05-05 01:13 49.90680 -97.22416 789 ft 0 kts 180°
2026-05-05 01:17 49.90681 -97.22416 787 ft 0 kts 180°
2026-05-05 01:26 49.90682 -97.22416 787 ft 0 kts 180°
2026-05-05 01:34 49.90683 -97.22416 787 ft 1 kts 180°
2026-05-05 01:34 49.90691 -97.22416 787 ft 1 kts 180°
2026-05-05 01:34 49.90700 -97.22416 787 ft 2 kts 180°
2026-05-05 01:34 49.90708 -97.22416 787 ft 2 kts 180°
2026-05-05 01:35 49.90717 -97.22416 787 ft 2 kts 180°
2026-05-05 01:35 49.90726 -97.22417 787 ft 2 kts 180°
2026-05-05 01:35 49.90735 -97.22417 787 ft 2 kts 180°
2026-05-05 01:35 49.90744 -97.22417 787 ft 2 kts 180°
2026-05-05 01:36 49.90753 -97.22417 787 ft 2 kts 180°
2026-05-05 01:36 49.90763 -97.22417 787 ft 2 kts 180°
2026-05-05 01:36 49.90772 -97.22417 787 ft 2 kts 180°
2026-05-05 01:36 49.90770 -97.22416 787 ft 4 kts 184°
2026-05-05 01:37 49.90764 -97.22403 787 ft 4 kts 105°
2026-05-05 01:37 49.90766 -97.22375 787 ft 2 kts 92°
2026-05-05 01:37 49.90765 -97.22338 787 ft 2 kts 272°
2026-05-05 01:37 49.90764 -97.22322 787 ft 2 kts 272°
2026-05-05 01:38 49.90764 -97.22307 787 ft 2 kts 272°
2026-05-05 01:38 49.90764 -97.22304 787 ft 0 kts 272°
2026-05-05 01:40 49.90764 -97.22307 787 ft 1 kts 272°
2026-05-05 01:40 49.90765 -97.22357 787 ft 6 kts 271°
2026-05-05 01:41 49.90765 -97.22441 787 ft 9 kts 269°
2026-05-05 01:41 49.90761 -97.22545 787 ft 11 kts 263°
2026-05-05 01:41 49.90746 -97.22671 787 ft 13 kts 258°
2026-05-05 01:41 49.90727 -97.22811 787 ft 14 kts 258°
2026-05-05 01:42 49.90707 -97.22962 787 ft 15 kts 258°
2026-05-05 01:42 49.90687 -97.23116 787 ft 14 kts 258°
2026-05-05 01:42 49.90663 -97.23267 786 ft 15 kts 244°
2026-05-05 01:42 49.90578 -97.23342 788 ft 14 kts 199°
2026-05-05 01:43 49.90482 -97.23395 788 ft 16 kts 199°
2026-05-05 01:43 49.90375 -97.23448 788 ft 17 kts 197°
2026-05-05 01:43 49.90278 -97.23411 792 ft 14 kts 140°
2026-05-05 01:43 49.90204 -97.23310 793 ft 15 kts 139°
2026-05-05 01:44 49.90118 -97.23193 792 ft 17 kts 137°
2026-05-05 01:44 49.90025 -97.23063 791 ft 19 kts 138°
2026-05-05 01:44 49.89994 -97.23020 790 ft 7 kts 138°
2026-05-05 01:44 49.89937 -97.22943 789 ft 13 kts 138°
2026-05-05 01:45 49.89867 -97.22847 790 ft 15 kts 139°
2026-05-05 01:45 49.89785 -97.22728 789 ft 17 kts 136°
2026-05-05 01:45 49.89698 -97.22607 791 ft 17 kts 147°
2026-05-05 01:45 49.89603 -97.22663 790 ft 16 kts 225°
2026-05-05 01:46 49.89531 -97.22795 792 ft 12 kts 252°
2026-05-05 01:46 49.89545 -97.22841 789 ft 3 kts 318°
2026-05-05 01:46 49.89619 -97.22941 787 ft 38 kts 319°
2026-05-05 01:46 49.89975 -97.23413 791 ft 94 kts 319°
2026-05-05 01:47 49.90583 -97.24246 793 ft 137 kts 319°
2026-05-05 01:47 49.91379 -97.25318 1055 ft 155 kts 320°
2026-05-05 01:47 49.92200 -97.26462 1575 ft 163 kts 319°
2026-05-05 01:47 49.93053 -97.27643 2219 ft 175 kts 319°
2026-05-05 01:48 49.94029 -97.28986 2649 ft 199 kts 320°
2026-05-05 01:48 49.95112 -97.30542 3244 ft 222 kts 319°
2026-05-05 01:48 49.96304 -97.32169 4139 ft 229 kts 326°
2026-05-05 01:48 49.97728 -97.33188 5390 ft 225 kts 344°
2026-05-05 01:49 49.99301 -97.33261 6547 ft 232 kts
2026-05-05 01:49 50.00819 -97.32185 7446 ft 254 kts 32°
2026-05-05 01:49 50.01866 -97.29893 8293 ft 279 kts 66°
2026-05-05 01:49 50.02110 -97.26838 9242 ft 292 kts 88°
2026-05-05 01:50 50.01711 -97.23698 10086 ft 302 kts 107°
2026-05-05 01:50 50.00912 -97.20599 10669 ft 318 kts 112°
2026-05-05 01:50 49.99977 -97.17361 11047 ft 338 kts 112°
2026-05-05 01:50 49.99025 -97.13922 11406 ft 355 kts 110°
2026-05-05 01:51 49.98130 -97.10272 11955 ft 366 kts 107°
2026-05-05 01:51 49.97338 -97.06475 12625 ft 373 kts 104°
2026-05-05 01:51 49.96671 -97.02541 13353 ft 378 kts 101°
2026-05-05 01:51 49.96164 -96.98580 14137 ft 380 kts 97°
2026-05-05 01:52 49.95819 -96.94527 14905 ft 381 kts 93°
2026-05-05 01:52 49.95662 -96.90394 15673 ft 382 kts 88°
2026-05-05 01:52 49.95687 -96.86261 16439 ft 385 kts 86°
2026-05-05 01:52 49.95565 -96.82087 17205 ft 389 kts 94°
2026-05-05 01:53 49.95137 -96.77926 18029 ft 392 kts 99°
2026-05-05 01:53 49.94641 -96.73748 18670 ft 395 kts 96°
2026-05-05 01:53 49.94315 -96.69510 19281 ft 398 kts 94°
2026-05-05 01:53 49.94067 -96.65210 19893 ft 401 kts 92°
2026-05-05 01:54 49.93902 -96.60931 20486 ft 404 kts 90°